DateTimeUTC,F1_A11,F1_S11,BsB_S11,BsG_S11,BsR_S11,BbsB_S11,BbsG_S11,BbsR_S11,BaB_A11,BaG_A11,BaR_A11,Tu_S11,T_S11,Uu_S11,U_S11,P_S11,T1_A11
2021-07-22T05:00:00Z,00000200,20000000,,,,,,,0000.20,0000.34,0000.04,18.4,25.2,06.5,04.3,0667.1,31.1
2021-07-22T05:01:00Z,00000200,20000000,,,,,,,0000.24,-000.25,0000.06,18.4,25.3,06.5,04.3,0667.1,31.1
2021-07-22T05:02:00Z,00000200,20000000,,,,,,,-000.42,-000.12,0000.11,18.5,25.3,06.5,04.3,0667.1,31.1
2021-07-22T05:03:00Z,00000200,60000000,,,,,,,0000.41,-000.02,0000.04,18.5,25.3,06.5,04.3,0667.1,31.1
2021-07-22T05:04:00Z,00000200,40000000,0001.12,0000.85,0000.59,0000.56,-000.14,-000.01,-000.47,-000.05,0000.02,18.7,25.2,06.5,04.4,0668.1,31.1
2021-07-22T05:05:00Z,00000200,00000000,0000.65,0001.02,0000.78,0000.25,0000.41,0000.10,0000.41,0000.34,0000.01,18.8,25.2,06.5,04.4,0668.2,31.1
2021-07-22T05:06:00Z,00000200,00000000,0000.39,0000.96,0001.02,0000.12,0000.20,0000.22,-000.01,0000.09,0000.12,18.8,25.1,06.5,04.4,0668.2,31.1
2021-07-22T05:07:00Z,00000200,00000000,0001.02,0001.01,0000.77,0000.48,0000.05,0000.14,0000.31,0000.08,0000.47,18.7,25.1,06.5,04.4,0668.2,31.1
2021-07-22T05:08:00Z,00000200,00000000,0000.78,0001.07,0000.58,0000.01,0000.03,0000.11,0000.16,0000.27,0000.08,18.7,25.1,06.4,04.3,0668.2,31.1
2021-07-22T05:09:00Z,00000200,00000000,0001.45,0000.69,0000.80,0000.13,0000.31,0000.54,0000.25,0000.27,0000.10,18.7,25.1,06.5,04.4,0668.3,31.1
2021-07-22T05:10:00Z,00000200,00000000,0000.98,0000.79,0000.51,0000.36,0000.30,0000.52,0000.33,-000.06,0000.08,18.6,25.1,06.5,04.4,0668.2,31.1
2021-07-22T05:11:00Z,00000200,00000000,0001.75,0000.93,0000.96,-000.10,0000.44,0000.72,0000.18,0000.34,0000.15,18.6,25.1,06.5,04.4,0668.2,31.1
2021-07-22T05:12:00Z,00000200,00000000,0000.89,0000.77,0000.41,-000.16,0000.08,-000.04,-000.30,-000.13,-000.16,18.6,25.0,06.5,04.4,0668.2,31.1
2021-07-22T05:13:00Z,00000200,00000000,0000.07,0000.89,0000.57,-000.05,0000.33,0000.07,0000.15,0000.43,-000.24,18.6,25.0,06.4,04.3,0668.2,31.0
2021-07-22T05:14:00Z,00000200,00000000,0001.09,0001.08,0000.72,-000.33,0000.18,-000.01,0000.24,0000.26,0000.52,18.6,25.0,06.3,04.3,0668.2,31.0
2021-07-22T05:15:00Z,00000200,00000000,0000.88,0001.03,0000.64,0000.74,0000.53,-000.02,0000.23,-000.08,0000.37,18.7,25.0,06.2,04.2,0668.2,31.1
2021-07-22T05:16:00Z,00000200,00000000,0001.15,0000.84,0000.40,-000.25,0000.06,0000.25,0000.13,0000.03,-000.04,18.7,25.1,06.1,04.1,0668.2,31.1
2021-07-22T05:17:00Z,00000200,00000000,0000.63,0001.09,0000.67,-000.36,0000.12,0000.30,0000.42,0000.56,0000.42,18.8,25.1,06.0,04.1,0668.2,31.1
2021-07-22T05:18:00Z,00000200,00000000,0001.51,0000.80,0000.80,0000.36,0000.22,0000.05,-000.23,-000.15,-000.06,18.9,25.1,06.0,04.1,0668.2,31.1
2021-07-22T05:19:00Z,00000200,00000000,0000.92,0000.99,0000.51,0000.24,0000.16,0000.31,0000.34,0000.25,0000.12,18.8,25.2,06.1,04.2,0668.2,31.1
2021-07-22T05:20:00Z,00000200,00000000,0000.93,0000.84,0000.71,-000.15,0000.35,0000.09,0000.35,0000.12,0000.01,18.8,25.1,06.1,04.1,0668.2,31.1
2021-07-22T05:21:00Z,00000200,00000000,0000.90,0001.05,0000.42,0000.10,0000.19,-000.27,0000.10,0000.09,0000.31,18.8,25.1,06.1,04.2,0668.2,31.1
2021-07-22T05:22:00Z,00000200,00000000,0001.05,0001.02,0000.45,0000.02,0000.50,0000.26,0000.39,0000.37,0000.37,18.8,25.1,06.2,04.2,0668.2,31.1
2021-07-22T05:23:00Z,00000200,00000000,0000.54,0001.07,0000.56,0000.66,0000.24,0000.25,0000.33,0000.18,-000.03,18.7,25.1,06.2,04.2,0668.2,31.1
2021-07-22T05:24:00Z,00000200,00000000,0000.48,0000.87,0000.80,0000.46,0000.10,0000.63,0000.28,0000.43,0000.11,18.7,25.1,06.4,04.3,0668.2,31.1
2021-07-22T05:25:00Z,00000200,00000000,0000.45,0001.30,0000.75,-000.24,0000.31,0000.27,0000.39,0000.28,0000.49,18.7,25.0,06.4,04.3,0668.2,31.1
2021-07-22T05:26:00Z,00000200,00000000,0001.90,0001.26,0000.87,0000.25,0000.23,0000.05,0000.28,0000.19,0000.00,18.7,25.0,06.6,04.4,0668.2,31.0
2021-07-22T05:27:00Z,00000200,00000000,0000.75,0001.21,0000.73,0000.34,0000.16,0000.41,0000.31,0000.40,0000.51,18.6,25.0,06.6,04.5,0668.2,31.0
2021-07-22T05:28:00Z,00000200,00000000,0000.98,0001.21,0000.57,0000.69,0000.13,0000.05,0000.31,0000.33,0000.18,18.6,25.0,06.7,04.5,0668.2,31.0
2021-07-22T05:29:00Z,00000200,00000000,0001.23,0000.89,0000.84,0000.41,0000.43,0000.27,0000.44,0000.42,0000.32,18.6,25.0,06.7,04.5,0668.2,31.1
2021-07-22T05:30:00Z,00000200,00000000,0001.49,0000.82,0000.65,0000.09,0000.19,0000.18,0000.41,0000.14,0000.24,18.7,25.0,06.6,04.5,0668.2,31.1
2021-07-22T05:31:00Z,00000200,00000000,0001.17,0001.21,0000.57,0000.44,0000.36,0000.18,-000.39,-000.22,-000.19,18.8,25.1,06.6,04.5,0668.2,31.1
2021-07-22T05:32:00Z,00000200,00000000,0001.02,0000.97,0000.95,0000.44,0000.43,0000.22,0000.17,0000.52,0000.35,18.8,25.1,06.4,04.4,0668.3,31.1
2021-07-22T05:33:00Z,00000200,00000000,0000.80,0000.93,0000.49,0000.14,0000.18,0000.14,0000.42,0000.05,0000.07,18.8,25.1,06.3,04.3,0668.3,31.1
2021-07-22T05:34:00Z,00000200,00000000,0001.09,0000.91,0000.72,0000.62,0000.09,0000.10,0000.07,0000.29,0000.14,18.8,25.1,06.2,04.2,0668.3,31.1
2021-07-22T05:35:00Z,00000200,00000000,0001.70,0001.25,0000.96,0000.20,0000.19,0000.37,0000.38,0000.23,0000.33,18.8,25.1,06.3,04.3,0668.3,31.1
2021-07-22T05:36:00Z,00000200,00000000,0000.94,0000.90,0000.57,0000.58,0000.31,0000.08,0000.22,-000.03,0000.05,18.7,25.1,06.3,04.3,0668.3,31.1
2021-07-22T05:37:00Z,00000200,00000000,0001.41,0001.24,0000.90,-000.24,0000.30,0000.53,0000.30,0000.62,0000.11,18.7,25.1,06.4,04.4,0668.3,31.1
2021-07-22T05:38:00Z,00000200,00000000,0000.84,0000.99,0000.62,0000.54,0000.38,0000.17,0000.26,0000.03,0000.31,18.7,25.1,06.4,04.3,0668.4,31.1
2021-07-22T05:39:00Z,00000200,00000000,0001.22,0001.08,0000.73,-000.20,0000.06,0000.11,0000.15,-000.02,0000.26,18.7,25.0,06.4,04.3,0668.3,31.1
2021-07-22T05:40:00Z,00000200,00000000,0001.71,0001.08,0000.77,-000.05,0000.34,0000.22,0000.22,0000.51,-000.17,18.6,25.0,06.4,04.3,0668.3,31.1
2021-07-22T05:41:00Z,00000200,00000000,0001.25,0001.24,0000.78,0000.54,0000.16,0000.37,0000.28,0000.20,0000.66,18.6,25.0,06.4,04.3,0668.4,31.1
2021-07-22T05:42:00Z,00000200,00000000,0000.68,0001.09,0001.19,0000.34,0000.21,0000.32,0000.29,0000.10,0000.09,18.6,25.0,06.4,04.3,0668.4,31.1
2021-07-22T05:43:00Z,00000200,00000000,0001.35,0001.06,0000.99,-000.25,0000.15,0000.35,0000.22,0000.51,0000.26,18.6,25.0,06.4,04.3,0668.4,31.0
2021-07-22T05:44:00Z,00000200,00000000,0001.27,0001.26,0000.71,0000.62,0000.03,0000.35,0000.52,0000.15,0000.19,18.6,25.0,06.4,04.3,0668.4,31.1
2021-07-22T05:45:00Z,00000200,00000000,0001.41,0001.62,0000.98,0000.10,0000.12,0000.29,0000.74,0000.61,0000.46,18.7,25.0,06.4,04.4,0668.4,31.1
2021-07-22T05:46:00Z,00000200,00000000,0000.63,0001.37,0000.92,0000.08,0000.44,0000.50,0000.01,0000.50,0000.44,18.7,25.0,06.4,04.4,0668.4,31.1
2021-07-22T05:47:00Z,00000200,00000000,0002.13,0001.49,0000.94,0000.46,0000.38,0000.27,0000.63,0000.08,0000.16,18.7,25.0,06.5,04.4,0668.4,31.1
2021-07-22T05:48:00Z,00000200,00000000,0001.87,0001.19,0001.06,0000.48,0000.13,0000.26,0000.37,0000.61,0000.14,18.7,25.1,06.5,04.4,0668.4,31.1
2021-07-22T05:49:00Z,00000200,00000000,0001.63,0001.23,0000.70,0000.01,0000.53,-000.02,0000.36,0000.28,0000.37,18.7,25.0,06.5,04.4,0668.4,31.1
2021-07-22T05:50:00Z,00000200,00000000,0002.12,0001.43,0000.99,0000.09,0000.51,0000.18,0000.14,0000.13,0000.01,18.7,25.0,06.5,04.4,0668.4,31.1
2021-07-22T05:51:00Z,00000200,00000000,0002.14,0001.51,0000.68,0001.07,0000.22,0000.40,0000.37,0000.56,0000.49,18.7,25.0,06.5,04.4,0668.4,31.0
2021-07-22T05:52:00Z,00000200,00000000,0001.92,0001.38,0000.95,-000.29,0000.36,0000.34,0000.85,0000.47,0000.53,18.7,25.0,06.4,04.4,0668.4,31.1
2021-07-22T05:53:00Z,00000200,00000000,0001.89,0001.56,0000.92,-000.24,0000.17,0000.19,0000.37,0000.59,0000.30,18.6,25.0,06.6,04.5,0668.4,31.1
2021-07-22T05:54:00Z,00000200,00000000,0002.20,0001.53,0001.06,0000.54,0000.28,0000.38,0000.03,0000.12,0000.03,18.6,25.0,06.6,04.5,0668.4,31.1
2021-07-22T05:55:00Z,00000200,00000000,0001.84,0001.61,0001.12,-000.22,0000.30,0000.36,0000.44,0000.27,0000.47,18.6,25.0,06.7,04.5,0668.4,31.0
2021-07-22T05:56:00Z,00000200,00000000,0001.40,0001.53,0001.03,0000.87,0000.26,0000.41,0000.63,0000.47,0000.22,18.6,25.0,06.6,04.5,0668.4,31.0
2021-07-22T05:57:00Z,00000200,40000000,,,,,,,-000.07,-000.11,-000.01,18.6,25.0,06.8,04.6,0668.5,31.0
2021-07-22T05:58:00Z,00000200,60000000,,,,,,,0000.18,0000.04,0000.01,18.3,25.1,06.6,04.3,0667.5,31.0
2021-07-22T05:59:00Z,00000200,20000000,,,,,,,0000.18,0000.40,0000.40,18.3,25.2,06.6,04.3,0667.5,31.1
